Location: Helsinki
(60.1699°N, 24.9384°E)
Time: 20:26:12
(UTC+02:00)

Transit 4A - Pass Details

Date: 05 November 2020
Orbit: 862 x 982 km, 66.8° (Epoch: 30 November)

Event Time Altitude Azimuth Distance (km) Brightness Sun altitude
Rises 13:17:23 0° 182° (S) 3,621 12.6 12.5°
Reaches altitude 10° 13:20:12 10° 172° (S) 2,695 11.7 12.4°
Maximum altitude 13:25:31 30° 115° (ESE) 1,686 9.5 12.2°
Drops below altitude 10° 13:30:56 10° 57° (ENE) 2,745 9.9 11.9°
Sets 13:33:49 0° 47° (NE) 3,699 10.5 11.8°
